Flag for Brazil Weather past 2 weeks in São Luis, Maranhão, Brazil

Now
79 °F

Scattered clouds.


Feels Like: 82 °F
Forecast: 76 / 87 °F
Wind: 10 mph from Northeast

Location: Sao Luiz Aeroporto


UV Index: 7 (High)

Visibility: N/A


Pressure: 29.95 "Hg

Humidity: 84%

Dew point: 73 °F

Location of São LuisLocation

Historic Weather in São Luis

°F

São Luis temperature yesterday

Maximum temperature yesterday: 90 °F (at 2:00 PM)
Minimum temperature yesterday: 75 °F (at 7:00 PM)
Average temperature yesterday: 79 °F

Past Weeks' High & Low Weather Summary

 TemperatureHumidityPressure
High90 °F (Apr 19, 2:00 PM)100% (Apr 7, 1:00 AM)29.98 "Hg (Apr 7, 1:00 AM)
Low36 °F (Apr 13, 4:00 AM)59% (Apr 19, 2:00 PM)29.77 "Hg (Apr 13, 3:00 PM)
Average80 °F82%29.87 "Hg
* Reported Apr 5 11:00 AM — Apr 20 11:00 AM, São Luis, Weather by CustomWeather, © 2014

Note: Actual official high and low records may vary slightly from our data, if they occured in-between our weather recording intervals... More about our weather records

Advertising

Historic Weather Conditions — Data for Previous 24 hours

 ConditionsComfort  
Time TempWeatherWind HumidityBarometerVisibility
11:00 AM
Apr 20
79 °FScattered clouds.10 mph84%29.95 "HgN/A
10:00 AM81 °FScattered clouds.3 mph84%29.95 "HgN/A
9:00 AM79 °FScattered clouds.2 mph89%29.95 "HgN/A
8:00 AM79 °FScattered clouds.2 mph89%29.92 "HgN/A
7:00 AM77 °FWarm.3 mph89%N/AN/A
6:00 AM75 °FPartly sunny.2 mph94%29.89 "HgN/A
5:00 AM75 °FPassing clouds.No wind94%29.86 "HgN/A
4:00 AM75 °FPassing clouds.No wind94%29.86 "HgN/A
3:00 AM75 °FPassing clouds.No wind94%29.86 "HgN/A
2:00 AM75 °FPassing clouds.3 mph94%29.86 "HgN/A
1:00 AM75 °FPassing clouds.No wind94%29.89 "HgN/A
12:00 AM75 °FPassing clouds.No wind94%29.92 "HgN/A
11:00 PM
Apr 19
75 °FLight rain. Passing clouds.5 mph94%29.92 "Hg5 mi
10:00 PM77 °FLight rain. Passing clouds.5 mph89%29.92 "Hg3 mi
9:00 PM77 °FThunderstorms. Partly cloudy.No wind89%29.92 "HgN/A
8:00 PM75 °FThunderstorms. Passing clouds.1 mph89%29.89 "HgN/A
7:00 PM75 °FThunderstorms. Partly cloudy.9 mph89%N/A5 mi
6:05 PM77 °FThunderstorms. Partly cloudy.14 mph89%29.83 "Hg3 mi
6:00 PM82 °FScattered showers. Passing clouds.10 mph79%N/A5 mi
5:00 PM82 °FScattered showers. Scattered clouds.13 mph79%29.80 "Hg5 mi
4:00 PM82 °FScattered showers. Scattered clouds.14 mph79%N/A5 mi
3:00 PM84 °FPartly sunny.13 mph79%29.80 "HgN/A
2:00 PM90 °FScattered clouds.3 mph59%29.83 "HgN/A
1:00 PM86 °FScattered clouds.10 mph70%29.86 "HgN/A
12:00 PM82 °FScattered clouds.2 mph79%29.89 "HgN/A
Weather by CustomWeather, © 2014

See weather overview